Weather History for KEVW - September, 2013

Change the Weather History Date:

Saturday, September 14, 2013

  Actual Average Record
Temperature  
Mean Temperature 59 °F 56 °F  
Max Temperature 68 °F 69 °F 82 °F (2000)
Min Temperature 49 °F 43 °F 30 °F (2003)
Degree Days  
Heating Degree Days 6 9  
Month to date heating degree days 50 99  
Since 1 July heating degree days 64 202  
Cooling Degree Days 0 0  
Month to date cooling degree days 26 0  
Year to date cooling degree days 348 157  
Growing Degree Days 7 (Base 50)    
Moisture  
Dew Point 50 °F    
Average Humidity 76    
Maximum Humidity 100    
Minimum Humidity 52    
Precipitation  
Precipitation 0.00 in 0.03 in 0.45 in (2006)
Month to date precipitation 1.33 0.56  
Year to date precipitation 3.91 8.59  
Sea Level Pressure  
Sea Level Pressure 29.96 in    
Wind  
Wind Speed 5 mph (South)    
Max Wind Speed 16 mph    
Max Gust Speed 24 mph    
Visibility 9 miles    
Events Rain , Thunderstorm    
T = Trace of Precipitation, MM = Missing Value Source: NWS Daily Summary

Daily Weather History Graph

Daily Weather History Graph

Search for Another Location

Airport or City:

Trip Planner

Search our weather history database for the weather conditions in past years. The results will help you decide how hot, cold, wet, or windy it might be!

Date:

Astronomy

Sep. 14, 2013 Rise Set
Actual Time 7:03 AM MDT 7:34 PM MDT
Civil Twilight 6:36 AM MDT 8:02 PM MDT
Nautical Twilight 6:03 AM MDT 8:34 PM MDT
Astronomical Twilight 5:29 AM MDT 9:08 PM MDT
Moon 4:21 PM MDT (9/14) 1:36 AM MDT (9/14)
Length of Visible Light 13h 26m
Length of Day
12h 30m
Waxing Gibbous, 73% of the Moon is Illuminated
Sep 14
Waxing Gibbous
Sep 19
Full
Sep 26
Last Quarter
Oct 4
New
Oct 11
First Quarter

Hourly Weather History & Observations

Time (MDT) Temp. Dew Point Humidity Pressure Visibility Wind Dir Wind Speed Gust Speed Precip Events Conditions
12:53 AM 51.1 °F 50.0 °F 96% 29.86 in 10.0 mi Calm Calm - N/A   Overcast
1:53 AM 51.1 °F 50.0 °F 96% 29.85 in 10.0 mi Calm Calm - N/A   Mostly Cloudy
2:53 AM 51.1 °F 50.0 °F 96% 29.84 in 10.0 mi SSW 3.5 mph - N/A   Overcast
3:53 AM 50.0 °F 50.0 °F 100% 29.86 in 10.0 mi Calm Calm - N/A   Overcast
4:26 AM 51.8 °F 50.0 °F 94% 30.07 in 10.0 mi Calm Calm - N/A   Overcast
4:35 AM 51.8 °F 50.0 °F 94% 30.07 in 10.0 mi SSW 3.5 mph - N/A   Overcast
4:53 AM 50.0 °F 50.0 °F 100% 29.89 in 10.0 mi SW 3.5 mph - N/A   Overcast
5:40 AM 50.0 °F 50.0 °F 100% 30.06 in 6.0 mi South 4.6 mph - N/A   Overcast
5:53 AM 50.0 °F 50.0 °F 100% 29.88 in 5.0 mi South 5.8 mph - N/A   Overcast
6:09 AM 48.2 °F 48.2 °F 100% 30.07 in 1.8 mi South 5.8 mph - N/A   Overcast
6:16 AM 48.2 °F 48.2 °F 100% 30.06 in 2.0 mi South 5.8 mph - N/A   Overcast
6:25 AM 48.2 °F 48.2 °F 100% 30.06 in 9.0 mi South 4.6 mph - N/A   Overcast
6:53 AM 50.0 °F 50.0 °F 100% 29.88 in 10.0 mi SSW 4.6 mph - N/A   Overcast
7:53 AM 48.9 °F 48.0 °F 97% 29.91 in 10.0 mi East 4.6 mph - N/A   Mostly Cloudy
8:25 AM 50.0 °F 48.2 °F 94% 30.09 in 10.0 mi ESE 3.5 mph - N/A   Overcast
8:53 AM 51.1 °F 48.9 °F 92% 29.91 in 10.0 mi Calm Calm - N/A   Overcast
9:53 AM 53.1 °F 50.0 °F 89% 29.91 in 10.0 mi SSW 3.5 mph - N/A   Overcast
10:53 AM 57.0 °F 52.0 °F 83% 29.91 in 10.0 mi SW 4.6 mph - N/A   Overcast
11:53 AM 60.1 °F 51.1 °F 72% 29.88 in 10.0 mi WSW 6.9 mph - N/A   Partly Cloudy
12:53 PM 62.1 °F 48.9 °F 62% 29.86 in 10.0 mi WSW 9.2 mph - N/A   Partly Cloudy
1:53 PM 64.0 °F 46.0 °F 52% 29.84 in 10.0 mi Variable 6.9 mph - N/A   Clear
2:53 PM 66.0 °F 48.9 °F 54% 29.82 in 10.0 mi WSW 9.2 mph - N/A   Mostly Cloudy
3:43 PM 64.4 °F 48.2 °F 56% 30.06 in 10.0 mi SW 12.7 mph 19.6 mph N/A Thunderstorm Thunderstorm
3:53 PM 64.0 °F 50.0 °F 60% 29.84 in 10.0 mi SW 18.4 mph 24.2 mph N/A Thunderstorm Thunderstorm
4:31 PM 64.4 °F 51.8 °F 64% 30.07 in 10.0 mi SW 10.4 mph - N/A   Overcast
4:53 PM 63.0 °F 48.9 °F 60% 29.85 in 10.0 mi ENE 4.6 mph - N/A   Overcast
5:08 PM 62.6 °F 50.0 °F 63% 30.07 in 10.0 mi NE 4.6 mph - N/A   Overcast
5:33 PM 62.6 °F 48.2 °F 59% 30.07 in 10.0 mi SW 9.2 mph - N/A   Overcast
5:53 PM 62.1 °F 48.9 °F 62% 29.86 in 10.0 mi SW 8.1 mph - N/A   Overcast
6:53 PM 59.0 °F 48.9 °F 69% 29.87 in 10.0 mi SW 4.6 mph - 0.00 in   Overcast
7:53 PM 55.0 °F 51.1 °F 86% 29.92 in 10.0 mi North 6.9 mph - N/A   Mostly Cloudy
8:53 PM 55.0 °F 48.9 °F 80% 29.94 in 10.0 mi North 5.8 mph - 0.00 in Rain Light Rain
9:53 PM 55.0 °F 52.0 °F 89% 29.95 in 6.0 mi ENE 8.1 mph - 0.00 in Rain Rain
10:02 PM 55.4 °F 51.8 °F 88% 30.15 in 10.0 mi ENE 6.9 mph - 0.00 in Rain Light Rain
10:28 PM 53.6 °F 51.8 °F 94% 30.15 in 10.0 mi East 9.2 mph - 0.00 in   Overcast
10:46 PM 53.6 °F 51.8 °F 94% 30.16 in 10.0 mi East 12.7 mph - 0.00 in   Overcast
10:53 PM 53.1 °F 51.1 °F 93% 29.95 in 10.0 mi East 12.7 mph - 0.00 in   Overcast
11:53 PM 53.1 °F 51.1 °F 93% 29.93 in 10.0 mi East 9.2 mph - 0.00 in Rain Light Rain